[[{"header":{"parameterUnit":"m.s-1","parameterCategory":2,"la1":30.2991,"la2":30.254,"lo1":-89.0895,"lo2":-89.0444,"dy":0.0017,"dx":0.0017,"nx":28,"ny":28,"refTime":"2024-05-30T09:00:00:Z","depth":"0","parameterNumber":2,"parameterNumberName":"U-component_of_CURRENTS"},"data":[0,0,0,0,0,0,0,0,0,0,0,0,0,0,0,0,0,0,0,0,0,0,0,0,0,0,0,0,0,0,0,0,0,0,0,0,0,0,0,0,0,0,0,0,0,0,0,0,0,0,0,0,0,0,0,0,0,0,0.1947,0.1947,0,0.1933,0.1933,0.1932,0.1904,0.1904,0.1903,0.1903,0.1897,0.1897,0.1898,0,0,0,0,0,0,0,0,0,0,0,0,0,0.1921,0.1921,0.1947,0.1947,0.1947,0.1933,0.1933,0.1932,0.1904,0.1904,0.1903,0.1903,0.1897,0.1897,0.1898,0,0,0,0,0,0,0,0,0,0,0,0,0,0.192,0.1921,0.1947,0.1933,0.1932,0.1933,0.1933,0.1932,0.1904,0.1904,0.1903,0.1903,0.1897,0.1897,0.1898,0.191,0,0,0.1899,0.1899,0,0,0,0,0,0,0,0,0.192,0.1921,0.1935,0.1934,0.1932,0.1922,0.1921,0.1926,0.1904,0.1912,0.1903,0.1902,0.1908,0.1907,0.1903,0.191,0.191,0.1899,0.1899,0.1899,0.1899,0,0,0,0,0,0,0,0.192,0.1921,0.1939,0.1935,0.1934,0.1918,0.1917,0.1922,0.1912,0.1912,0.191,0.1912,0.1907,0.1903,0.1903,0.191,0.1899,0.1899,0.1899,0.1899,0.195,0.1951,0,0,0,0,0,0,0.1929,0.1921,0.194,0.1939,0.1927,0.1919,0.1918,0.1924,0.1912,0.191,0.1913,0.1911,0.1902,0.1902,0.1902,0.1931,0.1899,0.1899,0.1899,0.1949,0.1951,0.1952,0,0,0,0,0,0,0.1928,0.193,0.194,0.1931,0.1932,0.192,0.1927,0.1924,0.192,0.1913,0.191,0.1912,0.1902,0.1902,0.1912,0.193,0.1899,0.19,0.1948,0.195,0.1951,0.198,0,0,0,0,0,0,0.1927,0.193,0.1936,0.1932,0.1932,0.1944,0.1928,0.1924,0.1923,0.192,0.1911,0.191,0.1901,0.1912,0.1912,0.193,0.19,0.1946,0.1948,0.1951,0.1978,0.1983,0.1987,0,0,0,0,0,0.1927,0.1931,0.1937,0.1939,0.1942,0.1944,0.1943,0.1931,0.1923,0.1924,0.1922,0.191,0.1927,0.1913,0.1913,0.1931,0.1945,0.1948,0.195,0.1975,0.1982,0.1987,0,0,0,0,0,0,0.1913,0.1929,0.1935,0.1942,0.1948,0.194,0.194,0.1936,0.1933,0.1933,0.1921,0.1921,0.1939,0.1934,0.1919,0.1955,0.1936,0.1939,0.1955,0.1961,0.1965,0.1968,0.19,0,0,0,0,0,0.1918,0.193,0.194,0.1946,0.1952,0.195,0.1949,0.1946,0.1944,0.1942,0.1938,0.1941,0.1951,0.1954,0.196,0.1976,0.198,0.1991,0.1996,0.2,0.2004,0.2025,0.2032,0.1961,0.1961,0.1961,0,0,0.1912,0.1925,0.1929,0.1946,0.1949,0.1958,0.1947,0.1952,0.1959,0.1944,0.1952,0.1958,0.1961,0.198,0.1988,0.1976,0.2024,0.2003,0.2006,0.2008,0.2028,0.2035,0.2041,0.1962,0.1962,0.1962,0,0,0.1908,0.1923,0.1933,0.1945,0.1961,0.1964,0.1968,0.1972,0.1974,0.1987,0.1983,0.2,0.2007,0.2016,0.2021,0.2057,0.2049,0.2061,0.2083,0.2104,0.2109,0.2114,0.2132,0.2139,0.2061,0.2061,0.2061,0,0.1899,0.1918,0.1934,0.195,0.1959,0.1969,0.1979,0.1986,0.1992,0.1998,0.1994,0.2021,0.2026,0.2051,0.2068,0.2068,0.2075,0.2058,0.2109,0.2114,0.2118,0.2136,0.2142,0.2063,0.2062,0.2062,0.2062,0,0.1907,0.1923,0.193,0.1959,0.1971,0.1981,0.2001,0.2012,0.2019,0.2026,0.2053,0.2065,0.2077,0.209,0.2091,0.213,0.2124,0.2113,0.2091,0.2127,0.2143,0.215,0.2065,0.2064,0.2064,0.2063,0,0,0.1875,0.1926,0.1926,0.1941,0.1977,0.1982,0.2009,0.203,0.2043,0.2062,0.208,0.2112,0.2118,0.2125,0.2133,0.2158,0.2206,0.2153,0.2154,0.2166,0.2252,0.2229,0.2233,0.2201,0.2202,0.2203,0.2251,0,0.1873,0.1902,0.1931,0.195,0.1963,0.1992,0.2014,0.2038,0.2059,0.2082,0.2107,0.2131,0.2131,0.2144,0.217,0.22,0.2224,0.2194,0.222,0.2221,0.2191,0.224,0.2182,0.2219,0.2258,0.2259,0.2259,0,0.1864,0.1887,0.1909,0.1948,0.1957,0.1971,0.2006,0.2027,0.207,0.2091,0.212,0.2142,0.2189,0.2182,0.2242,0.2223,0.2242,0.2262,0.2264,0.2235,0.221,0.219,0.2229,0.2192,0.2269,0.2268,0.2268,0,0.1823,0.1864,0.1881,0.1895,0.1944,0.1956,0.1978,0.2022,0.2038,0.2096,0.2112,0.2169,0.2188,0.2233,0.2271,0.2264,0.2333,0.2322,0.2317,0.2315,0.2268,0.226,0.2269,0.2363,0.2363,0.2363,0.2362,0,0.1805,0.1813,0.186,0.1868,0.1881,0.1926,0.1943,0.1978,0.2024,0.2044,0.2104,0.2134,0.2202,0.2244,0.2284,0.232,0.2338,0.2335,0.2331,0.2277,0.227,0.2236,0.2212,0.2364,0.2364,0.2364,0.2363,0,0.1757,0.1792,0.1806,0.1852,0.1862,0.1867,0.1907,0.1918,0.1973,0.2002,0.2022,0.2108,0.2179,0.2235,0.2315,0.2322,0.2313,0.2373,0.2305,0.2294,0.2256,0.2235,0.2143,0.2075,0.239,0.239,0.239,0,0.1737,0.1742,0.1777,0.1776,0.1794,0.181,0.1818,0.1879,0.1893,0.1984,0.199,0.208,0.2136,0.2241,0.2298,0.2364,0.2294,0.2325,0.2303,0.2258,0.2233,0.213,0.2071,0.2257,0.2256,0.2255,0.2254,0,0.1694,0.1706,0.1721,0.1717,0.1721,0.1724,0.1742,0.1748,0.1821,0.1867,0.1936,0.2001,0.2118,0.2181,0.2261,0.2293,0.2221,0.2305,0.2277,0.215,0.2019,0.195,0.2221,0.2245,0.2246,0.2247,0.2247,0.2247,0.1647,0.1646,0.1656,0.1646,0.1647,0.1626,0.1608,0.1642,0.167,0.1723,0.1843,0.192,0.2063,0.219,0.2194,0.2195,0.2164,0.2167,0.2154,0.206,0.1962,0.2213,0.2218,0.2219,0.2219,0.222,0.222,0,0.1567,0.1578,0.1577,0.1557,0.1523,0.1548,0.1542,0.1521,0.153,0.1642,0.1712,0.187,0.1955,0.205,0.2136,0.2076,0.1958,0.2017,0.1871,0.1828,0.2084,0.2048,0.1993,0.1993,0.1993,0.1993,0.1993,0.1993,0.1525,0.15,0.1505,0.143,0.1415,0.1349,0.133,0.1328,0.1388,0.1472,0.1573,0.1694,0.1903,0.2044,0.2041,0.1985,0.1823,0.1735,0.1708,0.1923,0.1936,0.1948,0.1909,0.1826,0.1826,0.1382,0.1378,0.1376]},{"header":{"parameterUnit":"m.s-1","parameterCategory":2,"la1":30.2991,"la2":30.254,"lo1":-89.0895,"lo2":-89.0444,"dy":0.0017,"dx":0.0017,"nx":28,"ny":28,"refTime":"2024-05-30T09:00:00:Z","depth":"0","parameterNumber":3,"parameterNumberName":"V-component_of_CURRENTS"},"data":[0,0,0,0,0,0,0,0,0,0,0,0,0,0,0,0,0,0,0,0,0,0,0,0,0,0,0,0,0,0,0,0,0,0,0,0,0,0,0,0,0,0,0,0,0,0,0,0,0,0,0,0,0,0,0,0,0,0,0.008,0.0079,0,0.0041,0.004,0.004,0.0007,0.0007,0.0007,0.0007,-0.0095,-0.0098,-0.01,0,0,0,0,0,0,0,0,0,0,0,0,0,0.0116,0.0115,0.008,0.0079,0.0079,0.0041,0.004,0.004,0.0007,0.0007,0.0007,0.0007,-0.0094,-0.0097,-0.01,0,0,0,0,0,0,0,0,0,0,0,0,0,0.009,0.0115,0.008,0.006,0.0057,0.0041,0.004,0.0039,0.0008,0.0007,0.0007,0.0007,-0.0093,-0.0097,-0.0101,-0.0118,0,0,-0.0112,-0.0114,0,0,0,0,0,0,0,0,0.0091,0.0088,0.0063,0.0061,0.0059,0.003,0.0016,-0.0016,0.0008,0.0025,0.0007,0.0006,-0.0058,-0.0065,-0.0073,-0.0123,-0.0127,-0.0113,-0.0115,-0.0117,-0.0118,0,0,0,0,0,0,0,0.0093,0.009,0.0063,0.0063,0.006,0.0049,0.0045,0.001,-0.0017,0.0023,0.0021,0.002,-0.006,-0.0069,-0.0075,-0.0129,-0.0113,-0.0116,-0.0118,-0.012,-0.0187,-0.0187,0,0,0,0,0,0,0.0102,0.0091,0.0064,0.0062,0.0076,0.0049,0.0044,0.0038,-0.0015,-0.0023,0.002,0.0018,-0.0062,-0.0071,-0.0079,-0.0086,-0.0117,-0.012,-0.0122,-0.0188,-0.0187,-0.0187,0,0,0,0,0,0,0.0103,0.01,0.0065,0.0077,0.0072,0.0049,0.0042,0.0038,0.003,-0.0017,-0.0026,0.0018,-0.0063,-0.0074,-0.0099,-0.0091,-0.0122,-0.0125,-0.0188,-0.0188,-0.0187,-0.0112,0,0,0,0,0,0,0.0104,0.01,0.01,0.0078,0.0072,0.0063,0.0043,0.0037,0.003,0.0028,-0.0022,-0.0032,-0.0064,-0.0093,-0.0102,-0.0097,-0.0128,-0.0189,-0.0188,-0.0187,-0.0115,-0.0108,-0.0103,0,0,0,0,0,0.0105,0.0111,0.01,0.0097,0.0072,0.0063,0.0059,0.0041,0.0031,0.0032,0.0003,-0.003,-0.0094,-0.0095,-0.0107,-0.0102,-0.0189,-0.0188,-0.0187,-0.0117,-0.011,-0.0103,0,0,0,0,0,0,0.013,0.0107,0.0095,0.0094,0.0082,0.0059,0.0059,0.0045,0.0024,0.0021,-0.0025,-0.0036,-0.0056,-0.0088,-0.0088,-0.0119,-0.0147,-0.0148,-0.009,-0.0084,-0.0078,-0.006,-0.0131,0,0,0,0,0,0.0135,0.0129,0.0109,0.0109,0.0105,0.0082,0.0076,0.0064,0.0043,0.0034,0.0001,-0.0033,-0.006,-0.0078,-0.0109,-0.0127,-0.0151,-0.0132,-0.0126,-0.0121,-0.0114,-0.0134,-0.0128,-0.0183,-0.0183,-0.0183,0,0,0.0144,0.0132,0.0128,0.0113,0.0102,0.0106,0.0078,0.0074,0.0078,0.0025,0.0018,-0.0016,-0.006,-0.0076,-0.0088,-0.0102,-0.0117,-0.0119,-0.0114,-0.0111,-0.0132,-0.0126,-0.0122,-0.0182,-0.0182,-0.0183,0,0,0.0167,0.015,0.0156,0.015,0.0138,0.0126,0.0128,0.0107,0.0098,0.0086,0.0053,0.003,-0.0018,-0.004,-0.006,-0.0042,-0.0085,-0.0057,-0.0015,-0.0033,-0.0029,-0.0025,-0.0044,-0.0043,-0.0054,-0.0054,-0.0054,0,0.018,0.0184,0.0158,0.0167,0.017,0.0139,0.0155,0.0142,0.0117,0.0113,0.0093,0.0042,0.0002,-0.001,-0.0003,-0.0028,-0.0046,-0.0036,-0.0024,-0.0021,-0.0019,-0.0039,-0.0039,-0.005,-0.0051,-0.0051,-0.0051,0,0.0208,0.0214,0.022,0.022,0.0219,0.0226,0.0209,0.0205,0.0188,0.0172,0.0155,0.0108,0.0078,0.0062,0.0032,0.0032,0.0011,-0.0013,-0.0038,-0.0009,-0.0032,-0.0033,-0.0045,-0.0046,-0.0047,-0.0048,0,0,0.0234,0.0239,0.0242,0.0256,0.0248,0.0253,0.026,0.0258,0.0267,0.0235,0.0242,0.0195,0.0167,0.0144,0.0104,0.0087,0.0087,0.005,0.0047,0.0038,0.0047,0.0031,0.0028,0.0066,0.0066,0.0067,0.0025,0,0.0266,0.0297,0.0289,0.0324,0.0342,0.0322,0.0333,0.0326,0.031,0.0307,0.0262,0.0248,0.0199,0.0188,0.0164,0.0108,0.0088,0.01,0.0013,0.0011,-0.0002,0.0028,0.0044,0.0008,0.0024,0.0024,0.0024,0,0.03,0.0318,0.0355,0.0381,0.0387,0.04,0.0414,0.0422,0.0406,0.0393,0.0371,0.0331,0.0302,0.0254,0.0181,0.0192,0.0128,0.008,0.0077,0.0035,-0.0007,-0.0021,0.0006,-0.0101,0.0022,0.0023,0.0023,0,0.0335,0.0368,0.04,0.0408,0.0427,0.044,0.0451,0.0447,0.0462,0.045,0.0452,0.0406,0.0385,0.031,0.021,0.0196,0.0128,0.0092,0.0016,0.0014,-0.0003,-0.0007,-0.0083,0.0039,0.0039,0.0039,0.004,0,0.0374,0.0402,0.0419,0.0437,0.0483,0.0481,0.0519,0.0522,0.053,0.0558,0.0499,0.0507,0.0398,0.0341,0.0242,0.0136,0.015,0.0033,0.0007,0.0023,0.0022,-0.0097,-0.016,0.0038,0.0038,0.0038,0.0039,0,0.0405,0.0415,0.0459,0.0487,0.0499,0.0533,0.0568,0.0595,0.0594,0.0629,0.063,0.0587,0.0514,0.0397,0.0277,0.0182,0.0017,0.0032,0.006,0.0038,-0.0136,-0.0194,-0.0303,-0.0355,-0.0055,-0.0056,-0.0057,0,0.0423,0.0447,0.0495,0.0525,0.0538,0.0581,0.061,0.0628,0.0659,0.0682,0.0705,0.0649,0.0623,0.0443,0.0267,0.0101,-0.0008,-0.0002,-0.0031,-0.0134,-0.0219,-0.0262,-0.0302,-0.0025,-0.0025,-0.0025,-0.0026,0,0.0459,0.0472,0.0506,0.0566,0.0606,0.0655,0.0699,0.0734,0.0762,0.0793,0.0827,0.0814,0.0645,0.0489,0.0257,0.0139,-0.0072,-0.0012,-0.0124,-0.0201,-0.0248,-0.0314,-0.0014,-0.0027,-0.0027,-0.0027,-0.0027,-0.0027,0.0483,0.0514,0.0554,0.061,0.0659,0.0717,0.0758,0.0811,0.0873,0.0929,0.0921,0.0931,0.0708,0.0395,0.021,-0.0101,-0.0115,-0.0194,-0.0256,-0.029,-0.0341,-0.0043,-0.0084,-0.0084,-0.0084,-0.0084,-0.0085,0,0.0508,0.0539,0.0594,0.0658,0.0707,0.073,0.0808,0.0852,0.093,0.1005,0.1039,0.0966,0.067,0.0375,-0.0049,-0.0288,-0.0376,-0.0418,-0.0476,-0.0505,-0.0242,-0.0241,-0.0309,-0.0309,-0.0309,-0.0309,-0.0309,-0.0309,0.0522,0.0569,0.0594,0.0676,0.0721,0.0788,0.0831,0.0912,0.0986,0.1079,0.1122,0.1138,0.095,0.0155,-0.0389,-0.0519,-0.068,-0.0718,-0.0816,-0.0637,-0.0621,-0.0606,-0.0619,-0.0766,-0.0766,-0.1039,-0.1042,-0.1044]}],[{"header":{"parameterUnit":"m.s-1","parameterCategory":2,"la1":30.2991,"la2":30.254,"lo1":-89.0895,"lo2":-89.0444,"dy":0.0017,"dx":0.0017,"nx":28,"ny":28,"refTime":"2024-05-30T09:00:00:Z","depth":"2","parameterNumber":2,"parameterNumberName":"U-component_of_CURRENTS"},"data":[0,0,0,0,0,0,0,0,0,0,0,0,0,0,0,0,0,0,0,0,0,0,0,0,0,0,0,0,0,0,0,0,0,0,0,0,0,0,0,0,0,0,0,0,0,0,0,0,0,0,0,0,0,0,0,0,0,0,0.1811,0.1811,0,0.1827,0.1828,0.1828,0.183,0.183,0.183,0.1829,0.1845,0.1846,0.1846,0,0,0,0,0,0,0,0,0,0,0,0,0,0.1795,0.1796,0.1811,0.1811,0.1811,0.1827,0.1828,0.1828,0.183,0.183,0.183,0.1829,0.1845,0.1846,0.1846,0,0,0,0,0,0,0,0,0,0,0,0,0,0.1808,0.1796,0.1811,0.1813,0.1813,0.1827,0.1828,0.1828,0.183,0.183,0.1829,0.1829,0.1844,0.1846,0.1847,0.1863,0,0,0.185,0.185,0,0,0,0,0,0,0,0,0.1807,0.1808,0.1813,0.1813,0.1813,0.1825,0.1828,0.1839,0.1831,0.1826,0.1829,0.1829,0.1837,0.1839,0.1846,0.1864,0.1864,0.185,0.1851,0.1851,0.1851,0,0,0,0,0,0,0,0.1806,0.1808,0.182,0.1813,0.1813,0.1817,0.1818,0.183,0.1836,0.1826,0.1826,0.1825,0.1838,0.1845,0.1846,0.1865,0.185,0.1851,0.1852,0.1852,0.1922,0.1923,0,0,0,0,0,0,0.18,0.1807,0.1819,0.182,0.1807,0.1818,0.1819,0.1823,0.1836,0.1836,0.1825,0.1825,0.1843,0.1845,0.1847,0.1885,0.1851,0.1852,0.1853,0.1921,0.1922,0.1923,0,0,0,0,0,0,0.18,0.1801,0.1818,0.1812,0.1814,0.1818,0.1823,0.1824,0.1835,0.1834,0.1836,0.1836,0.1843,0.1845,0.1867,0.1885,0.1853,0.1854,0.1919,0.1921,0.1923,0.1951,0,0,0,0,0,0,0.1799,0.1801,0.1809,0.1812,0.1814,0.1832,0.1823,0.1824,0.1834,0.1834,0.1844,0.1845,0.1843,0.1865,0.1868,0.1886,0.1854,0.1918,0.192,0.1922,0.1948,0.1953,0.1958,0,0,0,0,0,0.1799,0.1799,0.1809,0.1811,0.1822,0.1832,0.1835,0.1836,0.1835,0.1845,0.1854,0.1845,0.1882,0.1867,0.187,0.1889,0.1917,0.1919,0.1922,0.1946,0.1952,0.1957,0,0,0,0,0,0,0.179,0.18,0.181,0.1813,0.1828,0.1832,0.184,0.1843,0.1858,0.1862,0.1859,0.1861,0.1889,0.1888,0.1872,0.1917,0.1898,0.1902,0.1916,0.1921,0.1926,0.1933,0.1855,0,0,0,0,0,0.1795,0.1803,0.1814,0.1821,0.1829,0.184,0.1846,0.1851,0.186,0.1867,0.1876,0.1888,0.1903,0.191,0.1925,0.1947,0.1948,0.1963,0.1967,0.1971,0.198,0.1993,0.2,0.1932,0.1932,0.1932,0,0,0.1792,0.18,0.1804,0.1821,0.1834,0.1848,0.1843,0.1858,0.1872,0.1867,0.1895,0.1907,0.1915,0.1942,0.1954,0.1941,0.1992,0.1974,0.1978,0.1984,0.1997,0.2003,0.2009,0.1934,0.1934,0.1933,0,0,0.1791,0.1803,0.1814,0.183,0.1852,0.1858,0.1864,0.1881,0.1895,0.1922,0.1925,0.195,0.1969,0.1982,0.1989,0.203,0.2019,0.2034,0.2059,0.2072,0.2077,0.2082,0.2094,0.2099,0.2032,0.2032,0.2032,0,0.1792,0.1805,0.1819,0.1838,0.1851,0.1863,0.188,0.1896,0.1919,0.1935,0.1934,0.198,0.1989,0.2021,0.204,0.204,0.2044,0.2034,0.2077,0.2082,0.2086,0.2097,0.2102,0.2034,0.2034,0.2034,0.2034,0,0.1806,0.1818,0.1826,0.1855,0.1873,0.1888,0.1912,0.1932,0.1948,0.1963,0.2006,0.2026,0.2047,0.2061,0.2064,0.2104,0.2096,0.2082,0.2059,0.2094,0.2103,0.2109,0.2036,0.2036,0.2035,0.2035,0,0,0.1789,0.183,0.183,0.1847,0.1885,0.1895,0.1928,0.1957,0.1971,0.2009,0.2035,0.2081,0.2091,0.2101,0.2112,0.2135,0.2174,0.2127,0.2127,0.2132,0.2204,0.2166,0.2168,0.2164,0.2165,0.2166,0.2198,0,0.1796,0.1826,0.1849,0.1872,0.1887,0.1917,0.1942,0.1973,0.1998,0.2026,0.2063,0.2093,0.2104,0.2119,0.2145,0.2169,0.219,0.2167,0.2175,0.2176,0.2132,0.2173,0.2025,0.2038,0.2204,0.2204,0.2205,0,0.1791,0.1814,0.1843,0.1877,0.1889,0.1906,0.1944,0.1971,0.2015,0.204,0.2079,0.2101,0.2153,0.215,0.2208,0.2192,0.2205,0.2221,0.2222,0.2181,0.2147,0.2031,0.2042,0.2214,0.2213,0.2213,0.2212,0,0.1758,0.1798,0.1819,0.1834,0.1882,0.1901,0.1928,0.1973,0.1993,0.205,0.2065,0.2125,0.2149,0.2187,0.2224,0.2218,0.2278,0.2263,0.2241,0.2239,0.2112,0.2096,0.2299,0.2299,0.2299,0.2299,0.2299,0,0.1741,0.1753,0.1802,0.1814,0.1832,0.1881,0.1903,0.194,0.1985,0.2007,0.2065,0.2094,0.216,0.2196,0.223,0.2254,0.2277,0.226,0.2249,0.2118,0.2103,0.2252,0.2246,0.23,0.23,0.23,0.23,0,0.1696,0.173,0.1749,0.1802,0.1813,0.1829,0.1877,0.1888,0.1945,0.1974,0.1994,0.2072,0.2134,0.2184,0.2249,0.2248,0.2284,0.2281,0.2126,0.2097,0.2237,0.2232,0.2269,0.2268,0.2267,0.2266,0.2266,0,0.168,0.1682,0.1727,0.1731,0.1753,0.178,0.179,0.1856,0.1871,0.1959,0.1965,0.2043,0.2084,0.2164,0.2197,0.2239,0.2271,0.2104,0.2071,0.225,0.2236,0.2233,0.2229,0.1914,0.1911,0.1908,0.1906,0,0.164,0.1653,0.1675,0.1679,0.1688,0.1696,0.1724,0.1729,0.1805,0.1843,0.1903,0.1952,0.2039,0.2028,0.2077,0.2083,0.2089,0.2049,0.227,0.1948,0.1919,0.1904,0.1912,0.1881,0.1884,0.1885,0.1887,0.1888,0.1603,0.1605,0.1619,0.1616,0.1622,0.1605,0.1592,0.1626,0.1649,0.1689,0.1796,0.1825,0.1879,0.1896,0.1862,0.1845,0.1993,0.191,0.1917,0.1928,0.1884,0.1855,0.1797,0.1799,0.1801,0.1802,0.1804,0,0.1531,0.1544,0.1548,0.1539,0.1507,0.1535,0.1532,0.1508,0.1509,0.1587,0.1637,0.1561,0.1572,0.1617,0.1572,0.1594,0.1561,0.1518,0.1462,0.1491,0.1515,0.1447,0.1246,0.1243,0.1241,0.1239,0,0,0.1495,0.1475,0.148,0.1415,0.1408,0.1349,0.1332,0.132,0.1354,0.1355,0.1374,0.1509,0.1591,0.1395,0.1389,0.1306,0.1378,0.1256,0.1714,0.1678,0.1699,0.1764,0.1695,0,0,0,0,0]},{"header":{"parameterUnit":"m.s-1","parameterCategory":2,"la1":30.2991,"la2":30.254,"lo1":-89.0895,"lo2":-89.0444,"dy":0.0017,"dx":0.0017,"nx":28,"ny":28,"refTime":"2024-05-30T09:00:00:Z","depth":"2","parameterNumber":3,"parameterNumberName":"V-component_of_CURRENTS"},"data":[0,0,0,0,0,0,0,0,0,0,0,0,0,0,0,0,0,0,0,0,0,0,0,0,0,0,0,0,0,0,0,0,0,0,0,0,0,0,0,0,0,0,0,0,0,0,0,0,0,0,0,0,0,0,0,0,0,0,-0.0039,-0.0039,0,-0.0068,-0.0069,-0.0069,-0.0091,-0.0091,-0.0091,-0.0091,-0.0183,-0.0185,-0.0187,0,0,0,0,0,0,0,0,0,0,0,0,0,-0.0003,-0.0004,-0.0039,-0.0039,-0.0039,-0.0068,-0.0069,-0.0069,-0.0091,-0.0091,-0.0091,-0.0091,-0.0182,-0.0185,-0.0188,0,0,0,0,0,0,0,0,0,0,0,0,0,-0.0025,-0.0004,-0.0039,-0.0053,-0.0055,-0.0068,-0.0069,-0.0069,-0.0091,-0.0091,-0.0091,-0.0091,-0.0181,-0.0184,-0.0188,-0.0205,0,0,-0.0199,-0.02,0,0,0,0,0,0,0,0,-0.0024,-0.0026,-0.0051,-0.0052,-0.0054,-0.0076,-0.009,-0.0118,-0.0091,-0.0078,-0.0091,-0.0091,-0.0152,-0.0158,-0.0163,-0.021,-0.0214,-0.0199,-0.0201,-0.0202,-0.0203,0,0,0,0,0,0,0,-0.0022,-0.0025,-0.0051,-0.0051,-0.0053,-0.0059,-0.0062,-0.0095,-0.0115,-0.0079,-0.008,-0.0083,-0.0154,-0.016,-0.0166,-0.0215,-0.0199,-0.0202,-0.0204,-0.0205,-0.0272,-0.0272,0,0,0,0,0,0,-0.0017,-0.0024,-0.005,-0.0052,-0.0038,-0.0059,-0.0063,-0.0069,-0.0113,-0.012,-0.0082,-0.0083,-0.0154,-0.0161,-0.0169,-0.0177,-0.0202,-0.0206,-0.0208,-0.0272,-0.0272,-0.0271,0,0,0,0,0,0,-0.0016,-0.0019,-0.0049,-0.0038,-0.0042,-0.006,-0.0066,-0.0069,-0.0073,-0.0115,-0.0123,-0.0082,-0.0154,-0.0164,-0.0187,-0.0182,-0.0207,-0.021,-0.0273,-0.0272,-0.0272,-0.0204,0,0,0,0,0,0,-0.0015,-0.0019,-0.002,-0.0037,-0.0042,-0.005,-0.0066,-0.007,-0.0074,-0.0076,-0.0118,-0.0127,-0.0155,-0.0181,-0.019,-0.0187,-0.0213,-0.0273,-0.0272,-0.0272,-0.0207,-0.0202,-0.0197,0,0,0,0,0,-0.0014,-0.0011,-0.002,-0.0023,-0.0043,-0.005,-0.0052,-0.0066,-0.0074,-0.0071,-0.0096,-0.0125,-0.0184,-0.0184,-0.0194,-0.0192,-0.0273,-0.0272,-0.0272,-0.0209,-0.0203,-0.0197,0,0,0,0,0,0,0.0008,-0.0014,-0.0023,-0.0027,-0.0035,-0.0053,-0.0052,-0.0062,-0.0079,-0.0081,-0.0121,-0.0131,-0.015,-0.018,-0.0179,-0.0209,-0.0234,-0.0235,-0.0183,-0.0177,-0.0172,-0.0153,-0.0216,0,0,0,0,0,0.0011,0.0005,-0.0013,-0.0014,-0.0017,-0.0034,-0.0038,-0.0047,-0.0064,-0.0071,-0.0099,-0.013,-0.0155,-0.0172,-0.02,-0.0218,-0.0243,-0.0225,-0.0219,-0.0215,-0.0207,-0.0234,-0.0231,-0.0269,-0.0269,-0.0269,0,0,0.002,0.0008,0.0004,-0.001,-0.0018,-0.0014,-0.0037,-0.0038,-0.0034,-0.008,-0.0084,-0.0114,-0.0156,-0.0171,-0.0183,-0.0196,-0.0217,-0.0214,-0.021,-0.0204,-0.0233,-0.0229,-0.0226,-0.0269,-0.0269,-0.0269,0,0,0.0041,0.0024,0.0029,0.0024,0.0014,0.0003,0.0005,-0.001,-0.0016,-0.0025,-0.0054,-0.0076,-0.0118,-0.0141,-0.016,-0.0147,-0.0188,-0.0161,-0.0123,-0.0149,-0.0146,-0.0143,-0.0166,-0.0166,-0.0159,-0.0159,-0.0159,0,0.0055,0.0056,0.0032,0.0039,0.0042,0.0015,0.003,0.0019,0.0,-0.0002,-0.0018,-0.0064,-0.0102,-0.0117,-0.0111,-0.0136,-0.0155,-0.014,-0.0141,-0.0139,-0.0138,-0.0162,-0.0163,-0.0156,-0.0156,-0.0157,-0.0157,0,0.0081,0.0084,0.0089,0.0087,0.0087,0.0094,0.0079,0.0076,0.0062,0.005,0.0036,-0.0008,-0.0035,-0.0052,-0.0079,-0.0087,-0.0105,-0.0129,-0.0153,-0.013,-0.0157,-0.0159,-0.0151,-0.0152,-0.0153,-0.0154,0,0,0.0107,0.0107,0.011,0.0122,0.0113,0.0119,0.0124,0.0123,0.013,0.0105,0.0111,0.0068,0.0044,0.0022,-0.0016,-0.0039,-0.0051,-0.0074,-0.0077,-0.0089,-0.0104,-0.0111,-0.0115,-0.0073,-0.0073,-0.0073,-0.0125,0,0.0138,0.0164,0.0154,0.0186,0.02,0.0182,0.0191,0.0184,0.017,0.0167,0.0125,0.0112,0.0072,0.006,0.0033,-0.0029,-0.0054,-0.0034,-0.013,-0.0133,-0.0136,-0.0116,-0.0091,-0.0134,-0.0127,-0.0128,-0.0128,0,0.0168,0.0182,0.0216,0.0237,0.0242,0.0255,0.0266,0.0273,0.0255,0.0243,0.0224,0.0186,0.0154,0.0112,0.0031,0.0047,-0.0019,-0.0069,-0.0073,-0.0104,-0.0144,-0.0158,-0.0139,-0.0132,-0.0132,-0.0132,-0.0131,0,0.02,0.0227,0.0256,0.0263,0.0278,0.0293,0.0304,0.0297,0.031,0.0295,0.0296,0.0248,0.0226,0.0147,0.0048,0.0037,-0.0044,-0.0079,-0.0147,-0.0148,-0.0158,-0.016,-0.0138,-0.0138,-0.0138,-0.0138,-0.0138,0,0.0233,0.0259,0.0274,0.0291,0.0332,0.0332,0.0367,0.0369,0.0374,0.0397,0.0342,0.0344,0.0234,0.0172,0.0073,-0.0032,-0.0027,-0.0131,-0.0159,-0.0134,-0.0133,-0.0158,-0.016,-0.014,-0.0139,-0.0139,-0.0138,0,0.026,0.0267,0.0308,0.0335,0.0347,0.038,0.0417,0.0439,0.0438,0.0467,0.0467,0.0417,0.0341,0.0226,0.0096,0.0005,-0.0102,-0.0145,-0.0103,-0.0124,-0.0197,-0.0195,-0.0228,-0.0228,-0.0229,-0.0229,-0.023,0,0.0276,0.0295,0.0342,0.0371,0.0385,0.0428,0.0455,0.0472,0.0499,0.0515,0.0532,0.0473,0.0439,0.0255,0.0089,-0.0075,-0.0103,-0.0166,-0.0187,-0.0181,-0.0205,-0.0202,-0.0199,-0.0176,-0.0176,-0.0176,-0.0176,0,0.0307,0.0319,0.0351,0.0408,0.0447,0.0494,0.0537,0.0567,0.0592,0.0616,0.0639,0.0617,0.0454,0.0299,0.0079,-0.003,-0.0136,-0.017,-0.0174,-0.0153,-0.0136,-0.0158,-0.0157,-0.0175,-0.0175,-0.0175,-0.0175,-0.0175,0.0331,0.0357,0.0394,0.0448,0.0495,0.055,0.0589,0.0637,0.0689,0.0732,0.0716,0.0696,0.0524,0.0249,0.0058,-0.0138,-0.0138,-0.021,-0.0209,-0.0209,-0.019,-0.0174,-0.0216,-0.0216,-0.0217,-0.0217,-0.0217,0,0.0356,0.0382,0.0432,0.0492,0.054,0.0565,0.0635,0.0672,0.0738,0.0789,0.081,0.0659,0.0488,0.0289,-0.0003,-0.0183,-0.0193,-0.0235,-0.021,-0.0209,-0.0208,-0.0189,-0.0216,-0.0216,-0.0217,-0.0217,0,0,0.037,0.041,0.043,0.0507,0.0554,0.062,0.0661,0.0726,0.0778,0.082,0.0826,0.0803,0.0564,0.0353,0.0112,-0.0054,-0.0089,-0.0082,-0.0062,-0.0003,-0.0,-0.0171,-0.0137,0,0,0,0,0]}],[{"header":{"parameterUnit":"m.s-1","parameterCategory":2,"la1":30.2991,"la2":30.254,"lo1":-89.0895,"lo2":-89.0444,"dy":0.0017,"dx":0.0017,"nx":28,"ny":28,"refTime":"2024-05-30T09:00:00:Z","depth":"4","parameterNumber":2,"parameterNumberName":"U-component_of_CURRENTS"},"data":[0,0,0,0,0,0,0,0,0,0,0,0,0,0,0,0,0,0,0,0,0,0,0,0,0,0,0,0,0,0,0,0,0,0,0,0,0,0,0,0,0,0,0,0,0,0,0,0,0,0,0,0,0,0,0,0,0,0,0.1002,0.1003,0,0.1068,0.1068,0.1069,0.111,0.111,0.1111,0.1111,0.1126,0.1126,0.1125,0,0,0,0,0,0,0,0,0,0,0,0,0,0.0929,0.093,0.1002,0.1003,0.1004,0.1068,0.1068,0.1069,0.111,0.111,0.1111,0.1112,0.1126,0.1126,0.1125,0,0,0,0,0,0,0,0,0,0,0,0,0,0.0972,0.093,0.1002,0.1034,0.1038,0.1068,0.1069,0.1069,0.111,0.111,0.1111,0.1112,0.1126,0.1126,0.1125,0.1111,0,0,0.1125,0.1125,0,0,0,0,0,0,0,0,0.097,0.0974,0.1028,0.1032,0.1036,0.1084,0.1049,0.1082,0.111,0.108,0.1111,0.1112,0.1108,0.1109,0.1117,0.1112,0.1113,0.1125,0.1125,0.1125,0.1125,0,0,0,0,0,0,0,0.0967,0.0972,0.1025,0.1029,0.1034,0.1052,0.1058,0.1055,0.1086,0.1082,0.1086,0.1097,0.1109,0.1117,0.1118,0.1113,0.1125,0.1125,0.1125,0.1125,0.1173,0.1175,0,0,0,0,0,0,0.0962,0.0969,0.1023,0.1028,0.1007,0.1052,0.106,0.1066,0.1087,0.1093,0.1097,0.1099,0.1117,0.1118,0.1118,0.1172,0.1125,0.1125,0.1125,0.1172,0.1174,0.1175,0,0,0,0,0,0,0.096,0.0966,0.1021,0.1002,0.1011,0.1053,0.106,0.1067,0.1102,0.1099,0.1103,0.1128,0.1118,0.1119,0.1142,0.117,0.1125,0.1125,0.117,0.1173,0.1174,0.1235,0,0,0,0,0,0,0.0958,0.0965,0.0979,0.1002,0.1012,0.1054,0.1059,0.1067,0.1107,0.1111,0.1127,0.1128,0.1118,0.1142,0.1142,0.1169,0.1125,0.1169,0.1171,0.1174,0.1231,0.1239,0.1245,0,0,0,0,0,0.0955,0.0967,0.0979,0.0987,0.1026,0.1055,0.1062,0.1092,0.1108,0.1126,0.1141,0.1128,0.1158,0.1143,0.1142,0.1171,0.1168,0.1171,0.1174,0.1228,0.1237,0.1245,0,0,0,0,0,0,0.0949,0.0973,0.0987,0.1009,0.1039,0.1064,0.1088,0.1107,0.1134,0.1144,0.1141,0.1143,0.1175,0.1164,0.1148,0.1193,0.1162,0.1165,0.1204,0.1212,0.1219,0.1209,0.1125,0,0,0,0,0,0.0953,0.0965,0.0995,0.1016,0.1033,0.1065,0.1087,0.1108,0.113,0.1145,0.1157,0.1169,0.1182,0.1191,0.1196,0.1217,0.1207,0.1236,0.1243,0.1249,0.1242,0.1268,0.1276,0.1185,0.1185,0.1185,0,0,0.0957,0.0973,0.0982,0.1016,0.1042,0.1068,0.108,0.1118,0.1144,0.1139,0.118,0.1193,0.1194,0.1222,0.1235,0.1219,0.1271,0.1253,0.1258,0.1247,0.1272,0.128,0.1288,0.1187,0.1186,0.1186,0,0,0.0964,0.0987,0.1001,0.1025,0.1069,0.1087,0.1105,0.1144,0.1169,0.1204,0.1214,0.1236,0.1261,0.1263,0.1267,0.1311,0.1308,0.1333,0.1359,0.1386,0.1393,0.14,0.1399,0.1405,0.1336,0.1336,0.1336,0,0.0978,0.0991,0.1012,0.1035,0.106,0.1099,0.1125,0.1153,0.1197,0.1218,0.1225,0.1277,0.1271,0.1305,0.1325,0.1324,0.1343,0.1328,0.1395,0.1401,0.1406,0.1404,0.141,0.1339,0.1339,0.1339,0.1338,0,0.0982,0.1011,0.1025,0.1061,0.1089,0.1121,0.1159,0.1197,0.1233,0.1257,0.1311,0.1317,0.1347,0.1357,0.1354,0.1402,0.1404,0.1402,0.1372,0.1419,0.1414,0.1419,0.1344,0.1343,0.1342,0.1341,0,0,0.0978,0.102,0.103,0.1053,0.1108,0.1129,0.1179,0.1228,0.127,0.1311,0.136,0.1382,0.1404,0.1409,0.1421,0.144,0.1487,0.145,0.145,0.1446,0.155,0.148,0.1477,0.1522,0.1523,0.1524,0.153,0,0.0987,0.1019,0.1042,0.1089,0.1115,0.1163,0.1206,0.1255,0.1303,0.1359,0.1381,0.143,0.1421,0.1455,0.1474,0.1492,0.1504,0.1484,0.1507,0.1506,0.1436,0.1482,0.1528,0.1534,0.1535,0.1535,0.1536,0,0.0987,0.1011,0.1048,0.1108,0.1125,0.1162,0.1241,0.1285,0.1362,0.1405,0.146,0.1488,0.1527,0.1515,0.1554,0.1559,0.1556,0.1556,0.1557,0.1469,0.1444,0.1477,0.1544,0.1544,0.1543,0.1542,0.1542,0,0.0961,0.102,0.1047,0.1066,0.1136,0.1174,0.1223,0.1303,0.1349,0.1446,0.1488,0.1546,0.158,0.1602,0.1607,0.1601,0.1644,0.1624,0.1548,0.1542,0.1575,0.1568,0.1639,0.1639,0.1639,0.1639,0.1639,0,0.095,0.0982,0.1042,0.1057,0.111,0.1168,0.1239,0.1302,0.1391,0.1444,0.1514,0.1558,0.1612,0.1642,0.1637,0.1612,0.1667,0.1552,0.1544,0.16,0.1596,0.1578,0.1571,0.164,0.164,0.1639,0.1639,0,0.0917,0.0955,0.0994,0.1067,0.1098,0.1139,0.1243,0.129,0.1386,0.1459,0.1493,0.1581,0.1626,0.1656,0.1687,0.1633,0.1624,0.1598,0.1654,0.165,0.149,0.1486,0.1498,0.1495,0.1493,0.1492,0.149,0,0.0898,0.0911,0.0988,0.1017,0.1057,0.1129,0.118,0.1284,0.1331,0.1457,0.1478,0.1561,0.1607,0.158,0.163,0.1618,0.1596,0.157,0.152,0.1486,0.1478,0.1477,0.1476,0.1487,0.1487,0.1486,0.1486,0,0.0858,0.0892,0.0919,0.098,0.1034,0.1087,0.1166,0.1187,0.1302,0.1392,0.1431,0.1457,0.1502,0.1526,0.1539,0.1525,0.1579,0.1548,0.1551,0.1504,0.1473,0.1468,0.1469,0.1479,0.148,0.1481,0.1481,0,0.0834,0.0839,0.0882,0.0931,0.0994,0.1029,0.1075,0.1126,0.118,0.1308,0.1321,0.1408,0.1491,0.1478,0.1493,0.1483,0.1444,0.1376,0.1387,0.1395,0.1361,0.1308,0.1258,0,0,0,0,0,0.0808,0.0804,0.0834,0.0877,0.0938,0.098,0.1059,0.1105,0.1203,0.1197,0.1255,0.1294,0.1323,0.137,0.1335,0.1446,0.1451,0.1399,0.1379,0.1441,0.1449,0.1421,0,0,0,0,0,0,0.0788,0.0807,0.0808,0.0825,0.085,0.0908,0.0954,0.102,0.1018,0.112,0.114,0.1219,0.1263,0.1331,0.1313,0.1327,0.1286,0.1457,0.1453,0.1437,0.1444,0.145,0.1424,0,0,0,0,0]},{"header":{"parameterUnit":"m.s-1","parameterCategory":2,"la1":30.2991,"la2":30.254,"lo1":-89.0895,"lo2":-89.0444,"dy":0.0017,"dx":0.0017,"nx":28,"ny":28,"refTime":"2024-05-30T09:00:00:Z","depth":"4","parameterNumber":3,"parameterNumberName":"V-component_of_CURRENTS"},"data":[0,0,0,0,0,0,0,0,0,0,0,0,0,0,0,0,0,0,0,0,0,0,0,0,0,0,0,0,0,0,0,0,0,0,0,0,0,0,0,0,0,0,0,0,0,0,0,0,0,0,0,0,0,0,0,0,0,0,-0.0011,-0.0012,0,-0.0034,-0.0034,-0.0034,-0.0049,-0.0049,-0.0049,-0.0049,-0.0097,-0.0098,-0.0099,0,0,0,0,0,0,0,0,0,0,0,0,0,0.0011,0.0011,-0.0011,-0.0012,-0.0012,-0.0034,-0.0034,-0.0034,-0.0049,-0.0049,-0.0049,-0.0049,-0.0096,-0.0098,-0.0099,0,0,0,0,0,0,0,0,0,0,0,0,0,-0.0004,0.001,-0.0011,-0.0022,-0.0023,-0.0034,-0.0034,-0.0034,-0.0049,-0.0049,-0.0049,-0.0049,-0.0096,-0.0098,-0.0099,-0.0108,0,0,-0.0105,-0.0106,0,0,0,0,0,0,0,0,-0.0003,-0.0005,-0.002,-0.0021,-0.0022,-0.0039,-0.0044,-0.006,-0.0049,-0.0039,-0.0049,-0.0049,-0.008,-0.0083,-0.0086,-0.011,-0.0112,-0.0105,-0.0106,-0.0107,-0.0107,0,0,0,0,0,0,0,-0.0002,-0.0004,-0.002,-0.002,-0.0022,-0.0028,-0.003,-0.0047,-0.0059,-0.004,-0.0041,-0.0043,-0.008,-0.0084,-0.0088,-0.0113,-0.0105,-0.0107,-0.0108,-0.0108,-0.0154,-0.0154,0,0,0,0,0,0,0.0001,-0.0003,-0.002,-0.0021,-0.0013,-0.0028,-0.0031,-0.0033,-0.0058,-0.0062,-0.0043,-0.0044,-0.0081,-0.0085,-0.0089,-0.01,-0.0107,-0.0109,-0.011,-0.0154,-0.0154,-0.0154,0,0,0,0,0,0,0.0002,0.0,-0.0019,-0.0012,-0.0015,-0.0028,-0.0031,-0.0034,-0.0039,-0.006,-0.0065,-0.0046,-0.0082,-0.0087,-0.01,-0.0102,-0.0109,-0.0111,-0.0154,-0.0154,-0.0154,-0.0123,0,0,0,0,0,0,0.0003,0.0,-0.0001,-0.0012,-0.0015,-0.0022,-0.0031,-0.0034,-0.004,-0.0041,-0.0064,-0.0069,-0.0082,-0.0098,-0.0102,-0.0105,-0.0112,-0.0154,-0.0154,-0.0154,-0.0124,-0.0122,-0.012,0,0,0,0,0,0.0004,0.0005,-0.0001,-0.0003,-0.0017,-0.0022,-0.0024,-0.0034,-0.004,-0.004,-0.0054,-0.0068,-0.0103,-0.0099,-0.0104,-0.0108,-0.0154,-0.0154,-0.0154,-0.0124,-0.0122,-0.012,0,0,0,0,0,0,0.0016,0.0003,-0.0004,-0.0006,-0.0013,-0.0024,-0.0025,-0.0033,-0.0044,-0.0046,-0.0067,-0.0072,-0.0086,-0.0102,-0.0097,-0.0123,-0.0132,-0.0133,-0.0108,-0.0106,-0.0104,-0.0094,-0.0114,0,0,0,0,0,0.0017,0.0014,0.0002,0.0001,-0.0002,-0.0014,-0.0018,-0.0025,-0.0035,-0.004,-0.0056,-0.0075,-0.0092,-0.0101,-0.0118,-0.013,-0.0151,-0.0138,-0.0136,-0.0135,-0.0131,-0.0165,-0.0166,-0.0156,-0.0156,-0.0156,0,0,0.0021,0.0015,0.0013,0.0003,-0.0003,-0.0002,-0.0017,-0.002,-0.002,-0.0044,-0.0049,-0.0069,-0.0094,-0.0106,-0.0114,-0.0119,-0.0148,-0.0135,-0.0134,-0.0131,-0.0166,-0.0167,-0.0168,-0.0156,-0.0156,-0.0156,0,0,0.0033,0.0023,0.0026,0.0022,0.0013,0.0007,0.0007,-0.0005,-0.0011,-0.0018,-0.0038,-0.0056,-0.0079,-0.0097,-0.0109,-0.011,-0.0138,-0.0119,-0.0104,-0.0137,-0.0138,-0.014,-0.0163,-0.0167,-0.012,-0.0119,-0.0119,0,0.0039,0.0041,0.0027,0.003,0.003,0.0013,0.002,0.0012,-0.0002,-0.0008,-0.0015,-0.0053,-0.0074,-0.0094,-0.0094,-0.0106,-0.0127,-0.0107,-0.0135,-0.0136,-0.0138,-0.0162,-0.0167,-0.0118,-0.0118,-0.0118,-0.0118,0,0.0052,0.0055,0.0058,0.0057,0.0055,0.0058,0.0047,0.0042,0.0032,0.0021,0.0001,-0.0028,-0.005,-0.0064,-0.0078,-0.0102,-0.0113,-0.0127,-0.0137,-0.0137,-0.0163,-0.0168,-0.0116,-0.0116,-0.0117,-0.0117,0,0,0.0063,0.0067,0.0068,0.0075,0.007,0.0071,0.0072,0.0066,0.0066,0.0044,0.0039,0.0004,-0.0015,-0.0031,-0.0058,-0.0088,-0.0118,-0.011,-0.0112,-0.0128,-0.0187,-0.0161,-0.0164,-0.0138,-0.0139,-0.014,-0.0199,0,0.0078,0.0093,0.009,0.0108,0.0115,0.0104,0.0108,0.0099,0.0088,0.0079,0.0041,0.0027,-0.0002,-0.0012,-0.0047,-0.0097,-0.0131,-0.01,-0.0189,-0.0191,-0.0164,-0.0169,-0.0142,-0.0203,-0.0204,-0.0205,-0.0205,0,0.0092,0.0102,0.0121,0.0135,0.0137,0.0145,0.0147,0.015,0.0131,0.0121,0.0097,0.0069,0.0029,0.0002,-0.0086,-0.0065,-0.0123,-0.0166,-0.017,-0.0159,-0.0174,-0.0205,-0.0215,-0.0214,-0.0213,-0.0213,-0.0212,0,0.0106,0.0124,0.0141,0.0145,0.0156,0.0163,0.017,0.0162,0.017,0.0151,0.0152,0.0096,0.0077,-0.0004,-0.0082,-0.0089,-0.0179,-0.0203,-0.0237,-0.0236,-0.0256,-0.0254,-0.0274,-0.0274,-0.0274,-0.0274,-0.0274,0,0.0121,0.0136,0.015,0.0159,0.0183,0.0184,0.0205,0.0204,0.0207,0.0222,0.0178,0.0173,0.0073,0.0015,-0.0071,-0.0157,-0.0173,-0.0232,-0.0249,-0.0241,-0.0237,-0.0259,-0.0257,-0.0276,-0.0275,-0.0275,-0.0275,0,0.013,0.0139,0.0162,0.0181,0.0191,0.0209,0.0239,0.0254,0.0254,0.0273,0.0272,0.0229,0.0158,0.006,-0.0064,-0.0129,-0.0223,-0.0254,-0.0223,-0.0238,-0.0264,-0.0259,-0.0304,-0.0303,-0.0303,-0.0303,-0.0302,0,0.0135,0.0147,0.0179,0.0199,0.0209,0.0238,0.026,0.0276,0.0296,0.0308,0.0319,0.0269,0.0226,0.0083,-0.0032,-0.0185,-0.0212,-0.0262,-0.0279,-0.0255,-0.0268,-0.0263,-0.0259,-0.0302,-0.0302,-0.0302,-0.0302,0,0.0144,0.0155,0.0172,0.0214,0.0243,0.0281,0.0314,0.0334,0.0358,0.0361,0.0364,0.0298,0.0223,0.0101,-0.0007,-0.0125,-0.0229,-0.0259,-0.0261,-0.0278,-0.0253,-0.0265,-0.0262,-0.03,-0.03,-0.0301,-0.0301,0,0.0151,0.0163,0.0187,0.0225,0.0267,0.0311,0.0329,0.0358,0.0381,0.0398,0.0399,0.0322,0.0277,0.0132,0.0027,-0.0073,-0.0115,-0.0162,-0.017,-0.0173,-0.0116,-0.0064,-0.0066,0,0,0,0,0,0.0159,0.0169,0.0199,0.024,0.0284,0.0313,0.036,0.0375,0.0399,0.0412,0.0411,0.0345,0.0213,0.0152,0.0055,0.0008,-0.0149,-0.0112,-0.021,-0.0293,-0.0295,-0.0248,0,0,0,0,0,0,0.0163,0.0184,0.0194,0.0247,0.0281,0.0332,0.0366,0.0387,0.0392,0.0405,0.0337,0.0316,0.0182,0.0272,0.0053,0.0022,-0.0055,-0.0172,-0.0174,-0.0292,-0.0294,-0.0295,-0.0248,0,0,0,0,0]}]]